Location: Newark
(51.2625°N, 13.3939°E)
Time: 04:22:03
(UTC+00:00)

Transit 2A Rocket - Pass Details

Date: 26 November 2019
Orbit: 594 x 909 km, 66.7° (Epoch: 05 December)

Event Time Altitude Azimuth Distance (km) Brightness Sun altitude
Exits shadow 04:48:15 19° 233° (SW) 1,520 6.2 -17.0°
Drops below altitude 10° 04:50:40 10° 202° (SSW) 2,039 7.1 -16.6°
Sets 04:53:32 0° 186° (S) 2,997 8.2 -16.1°
